[[{"header":{"parameterUnit":"m.s-1","parameterCategory":1,"la1":30.2991,"la2":30.254,"lo1":-89.0895,"lo2":-89.0444,"dy":0.0017,"dx":0.0017,"nx":28,"ny":28,"refTime":"2025-11-18T03:00:00:Z","depth":0,"parameterNumber":2,"parameterNumberName":"U-component_of_WINDS"},"data":[0,0,0,0,0,0,0,0,0,0,0,0,0,0,0,0,0,0,0,0,0,0,0,0,0,0,0,0,0,0,0,0,0,0,0,0,0,0,0,0,0,0,0,0,0,0,0,0,0,0,0,0,0,0,0,0,0,0,0.4187,0.4187,0,0.4219,0.4219,0.4219,0.4239,0.4239,0.4239,0.4239,0.4273,0.4274,0.4274,0,0,0,0,0,0,0,0,0,0,0,0,0,0.4146,0.4146,0.4187,0.4187,0.4188,0.4218,0.4219,0.4219,0.4239,0.4239,0.4239,0.4239,0.4273,0.4274,0.4275,0,0,0,0,0,0,0,0,0,0,0,0,0,0.4169,0.4146,0.4187,0.4201,0.4203,0.4218,0.4219,0.4219,0.4239,0.4239,0.4239,0.4239,0.4272,0.4273,0.4275,0.4279,0,0,0.4278,0.4279,0,0,0,0,0,0,0,0,0.4168,0.417,0.4199,0.42,0.4202,0.4225,0.4217,0.4239,0.4239,0.4225,0.4239,0.4239,0.4257,0.4259,0.4265,0.4281,0.4282,0.4278,0.4279,0.428,0.428,0,0,0,0,0,0,0,0.4166,0.4169,0.42,0.4199,0.4201,0.4207,0.421,0.4221,0.424,0.4226,0.4228,0.4231,0.4258,0.4264,0.4266,0.4283,0.4278,0.428,0.428,0.4281,0.4304,0.4304,0,0,0,0,0,0,0.4162,0.4168,0.4199,0.42,0.4185,0.4207,0.4211,0.4217,0.424,0.4243,0.4231,0.4232,0.4262,0.4264,0.4267,0.4274,0.428,0.4281,0.4282,0.4304,0.4304,0.4304,0,0,0,0,0,0,0.4161,0.4164,0.4197,0.4185,0.4189,0.4208,0.4215,0.4218,0.4224,0.4243,0.4247,0.4233,0.4262,0.4265,0.4276,0.4275,0.4281,0.4282,0.4304,0.4304,0.4304,0.4288,0,0,0,0,0,0,0.416,0.4164,0.4165,0.4184,0.419,0.4205,0.4215,0.4218,0.4226,0.4227,0.4247,0.425,0.4262,0.4274,0.4277,0.4277,0.4283,0.4305,0.4304,0.4304,0.4288,0.4287,0.4286,0,0,0,0,0,0.4158,0.416,0.4165,0.4169,0.4192,0.4205,0.4208,0.4222,0.4226,0.4227,0.424,0.4249,0.4275,0.4275,0.4279,0.4279,0.4305,0.4304,0.4304,0.4289,0.4287,0.4286,0,0,0,0,0,0,0.414,0.4162,0.4169,0.4177,0.4189,0.4208,0.4211,0.4219,0.4231,0.4232,0.4249,0.4253,0.4262,0.4272,0.4271,0.4285,0.4291,0.4291,0.4278,0.4277,0.4275,0.4273,0.4284,0,0,0,0,0,0.4137,0.4146,0.4165,0.417,0.4175,0.4192,0.4198,0.4208,0.4221,0.4226,0.424,0.4253,0.4264,0.4271,0.4282,0.429,0.4295,0.4292,0.4291,0.429,0.429,0.4295,0.4294,0.4303,0.4303,0.4303,0,0,0.4131,0.4144,0.4148,0.4166,0.4177,0.4185,0.4196,0.4205,0.4212,0.4228,0.4238,0.4249,0.4265,0.4274,0.4279,0.4282,0.4288,0.4289,0.4288,0.4289,0.4295,0.4294,0.4293,0.4303,0.4303,0.4303,0,0,0.4124,0.4135,0.414,0.4151,0.4166,0.4177,0.4179,0.4197,0.4204,0.4215,0.4228,0.4236,0.4255,0.4266,0.4274,0.4272,0.4281,0.4275,0.4268,0.4273,0.4272,0.4272,0.4271,0.4271,0.4275,0.4275,0.4275,0,0.4115,0.4128,0.4142,0.415,0.4158,0.4173,0.4179,0.4188,0.4207,0.4212,0.4216,0.424,0.4252,0.4264,0.4263,0.4269,0.4271,0.4273,0.4271,0.4271,0.4271,0.427,0.427,0.4274,0.4274,0.4275,0.4275,0,0.4115,0.4124,0.4127,0.4144,0.4152,0.4159,0.4175,0.4182,0.4191,0.4202,0.4213,0.4228,0.4242,0.4246,0.4255,0.426,0.4261,0.4268,0.4274,0.4269,0.4269,0.4269,0.4273,0.4273,0.4274,0.4274,0,0,0.4098,0.4123,0.4124,0.4132,0.4151,0.4158,0.4166,0.418,0.4185,0.4198,0.4205,0.4221,0.4227,0.4237,0.4247,0.4251,0.4249,0.4258,0.4258,0.4255,0.4255,0.425,0.4249,0.4255,0.4255,0.4255,0.4254,0,0.4094,0.4108,0.4121,0.4131,0.414,0.4155,0.4162,0.4174,0.4185,0.4194,0.4206,0.4217,0.4225,0.423,0.4235,0.4248,0.4249,0.4248,0.4263,0.4263,0.4258,0.4249,0.4244,0.4241,0.4254,0.4254,0.4254,0,0.4091,0.4102,0.4113,0.4131,0.4135,0.4141,0.4155,0.4164,0.4178,0.4186,0.4196,0.4207,0.4217,0.4223,0.4237,0.4236,0.4243,0.425,0.425,0.4252,0.4258,0.4251,0.4241,0.424,0.4254,0.4254,0.4254,0,0.4077,0.4095,0.4104,0.411,0.4132,0.4135,0.4145,0.416,0.4167,0.418,0.4185,0.4199,0.4206,0.4217,0.4232,0.4234,0.4244,0.4251,0.4251,0.4251,0.4252,0.4252,0.4243,0.4257,0.4257,0.4257,0.4257,0,0.407,0.4076,0.4098,0.4103,0.411,0.4126,0.4133,0.4144,0.4157,0.4165,0.4179,0.4186,0.4205,0.4215,0.4227,0.4237,0.424,0.4247,0.425,0.4245,0.4245,0.425,0.425,0.4257,0.4257,0.4257,0.4257,0,0.4056,0.407,0.4081,0.41,0.4105,0.411,0.4127,0.4133,0.4144,0.4154,0.4158,0.4176,0.4189,0.4204,0.4222,0.423,0.4239,0.4243,0.4233,0.4235,0.4234,0.4234,0.4229,0.4229,0.4242,0.4242,0.4242,0,0.4051,0.4055,0.4075,0.4082,0.409,0.41,0.4108,0.4124,0.4132,0.4149,0.4153,0.4167,0.4178,0.4198,0.4213,0.4227,0.4232,0.4229,0.4234,0.4229,0.4232,0.4231,0.4232,0.4227,0.4227,0.4227,0.4227,0,0.404,0.4047,0.4058,0.4071,0.408,0.4091,0.4103,0.4107,0.4126,0.4134,0.4147,0.4156,0.4174,0.4187,0.4203,0.4213,0.4223,0.4225,0.4226,0.4221,0.4215,0.4218,0.423,0.4225,0.4225,0.4226,0.4226,0.4226,0.403,0.4035,0.405,0.4061,0.4072,0.4083,0.409,0.4102,0.4113,0.4128,0.4137,0.415,0.4165,0.4187,0.4197,0.4207,0.4211,0.4212,0.4212,0.4212,0.4211,0.4214,0.421,0.421,0.4211,0.4211,0.4211,0,0.402,0.403,0.4041,0.4057,0.4066,0.4075,0.4089,0.4096,0.4106,0.4119,0.4131,0.4145,0.4158,0.4175,0.4189,0.4194,0.4199,0.4198,0.4197,0.4199,0.4207,0.4205,0.4193,0.4193,0.4193,0.4193,0.4193,0.4193,0.4016,0.4025,0.4034,0.4049,0.4059,0.4071,0.4078,0.4088,0.4099,0.4115,0.4126,0.4136,0.4151,0.4167,0.4179,0.4184,0.4188,0.4185,0.4191,0.4197,0.4199,0.42,0.4198,0.4186,0.4186,0.4183,0.4183,0.4183]},{"header":{"parameterUnit":"m.s-1","parameterCategory":1,"la1":30.2991,"la2":30.254,"lo1":-89.0895,"lo2":-89.0444,"dy":0.0017,"dx":0.0017,"nx":28,"ny":28,"refTime":"2025-11-18T03:00:00:Z","depth":0,"parameterNumber":3,"parameterNumberName":"V-component_of_WINDS"},"data":[0,0,0,0,0,0,0,0,0,0,0,0,0,0,0,0,0,0,0,0,0,0,0,0,0,0,0,0,0,0,0,0,0,0,0,0,0,0,0,0,0,0,0,0,0,0,0,0,0,0,0,0,0,0,0,0,0,0,1.1726,1.1726,0,1.1676,1.1675,1.1675,1.1691,1.1692,1.1693,1.1694,1.1635,1.1632,1.1629,0,0,0,0,0,0,0,0,0,0,0,0,0,1.1831,1.1829,1.1727,1.1726,1.1725,1.1676,1.1675,1.1674,1.1691,1.1692,1.1694,1.1695,1.1635,1.1632,1.1629,0,0,0,0,0,0,0,0,0,0,0,0,0,1.1783,1.1828,1.1727,1.1728,1.1727,1.1676,1.1675,1.1674,1.1691,1.1692,1.1694,1.1695,1.1637,1.1633,1.1629,1.1571,0,0,1.1617,1.1615,0,0,0,0,0,0,0,0,1.1786,1.1779,1.1728,1.1728,1.1727,1.1692,1.169,1.1639,1.169,1.1704,1.1694,1.1696,1.1652,1.1647,1.1633,1.1568,1.1566,1.1616,1.1614,1.1612,1.1611,0,0,0,0,0,0,0,1.1789,1.1781,1.1706,1.1727,1.1727,1.1728,1.1723,1.168,1.1669,1.1703,1.1704,1.1698,1.1652,1.1637,1.1632,1.1565,1.1617,1.1613,1.1611,1.1609,1.1447,1.1446,0,0,0,0,0,0,1.1794,1.1784,1.1708,1.1705,1.1761,1.1725,1.172,1.1701,1.167,1.1666,1.1697,1.1699,1.1643,1.1636,1.163,1.1558,1.1612,1.1609,1.1606,1.1449,1.1447,1.1445,0,0,0,0,0,0,1.1796,1.1787,1.171,1.1745,1.1735,1.1722,1.1701,1.1699,1.1685,1.1665,1.1662,1.1685,1.1644,1.1635,1.1586,1.1557,1.1607,1.1603,1.1452,1.1449,1.1446,1.1416,0,0,0,0,0,0,1.1799,1.1787,1.1767,1.1744,1.1733,1.1668,1.1699,1.1697,1.1679,1.1681,1.1653,1.1649,1.1645,1.1591,1.1582,1.1552,1.16,1.1454,1.145,1.1447,1.1419,1.1412,1.1406,0,0,0,0,0,1.1802,1.1759,1.1766,1.1756,1.1708,1.1667,1.166,1.1658,1.1676,1.1654,1.1642,1.165,1.1562,1.1586,1.1575,1.1544,1.1456,1.1451,1.1447,1.1422,1.1414,1.1406,0,0,0,0,0,0,1.1776,1.1756,1.1763,1.1712,1.1691,1.167,1.1642,1.1649,1.1621,1.1624,1.162,1.1613,1.1562,1.1548,1.1576,1.1485,1.1511,1.1504,1.1496,1.1488,1.1481,1.1484,1.1597,0,0,0,0,0,1.1765,1.1736,1.1719,1.1675,1.1665,1.1655,1.1637,1.1638,1.1615,1.1605,1.1589,1.1565,1.1531,1.1509,1.1477,1.1418,1.1411,1.1391,1.1385,1.138,1.1373,1.1338,1.1329,1.1431,1.1431,1.1431,0,0,1.174,1.1726,1.1707,1.167,1.1654,1.1621,1.1648,1.1612,1.1587,1.1599,1.1551,1.1539,1.1511,1.1456,1.143,1.1443,1.1344,1.1374,1.137,1.1366,1.1333,1.1323,1.1315,1.1428,1.1428,1.1429,0,0,1.1678,1.1666,1.1627,1.1611,1.1588,1.1582,1.1572,1.155,1.1542,1.1495,1.1503,1.1472,1.1415,1.1395,1.1377,1.1308,1.1313,1.1297,1.1262,1.1229,1.1221,1.1213,1.1186,1.1177,1.1291,1.1291,1.1291,0,1.165,1.1604,1.1606,1.157,1.1552,1.1564,1.1524,1.1507,1.1473,1.1459,1.1474,1.1403,1.1385,1.1324,1.1308,1.1294,1.1281,1.1299,1.1222,1.1215,1.1208,1.1182,1.1172,1.1289,1.129,1.129,1.129,0,1.1568,1.1536,1.1507,1.1477,1.1456,1.1418,1.1412,1.139,1.1392,1.1384,1.1334,1.1314,1.1277,1.1264,1.1264,1.1202,1.121,1.1224,1.1249,1.1196,1.1172,1.1162,1.1287,1.1287,1.1288,1.1288,0,0,1.1486,1.1459,1.1448,1.1434,1.1409,1.1383,1.1344,1.1311,1.1291,1.1268,1.1233,1.1185,1.1198,1.1177,1.1176,1.1147,1.1091,1.1164,1.1163,1.1149,1.1018,1.1006,1.0995,1.1096,1.1094,1.1092,1.1019,0,1.1421,1.1356,1.1357,1.1295,1.1264,1.1276,1.1242,1.1221,1.1213,1.1183,1.1172,1.1137,1.1158,1.1145,1.1117,1.1104,1.1064,1.1109,1.106,1.1058,1.1064,1.0982,1.097,1.0902,1.101,1.1008,1.1007,0,1.1335,1.1311,1.1247,1.1226,1.1213,1.1183,1.1152,1.1125,1.1101,1.1096,1.1074,1.1077,1.1035,1.1064,1.1004,1.1035,1.1015,1.1005,1.1003,1.0996,1.1028,1.097,1.088,1.0869,1.0993,1.0994,1.0995,0,1.1279,1.123,1.1185,1.1173,1.1148,1.1126,1.1115,1.1093,1.1073,1.1045,1.1032,1.0999,1.098,1.0953,1.0946,1.0968,1.0886,1.0914,1.0878,1.0878,1.0857,1.0858,1.076,1.0849,1.0849,1.085,1.085,0,1.1204,1.1163,1.116,1.1132,1.1086,1.1087,1.1041,1.1031,1.1011,1.0979,1.0987,1.0957,1.0951,1.0918,1.0913,1.0863,1.0855,1.0847,1.0846,1.0845,1.0846,1.083,1.0833,1.0847,1.0848,1.0848,1.0849,0,1.1132,1.1128,1.108,1.1061,1.1056,1.1022,1.1005,1.0977,1.097,1.0929,1.092,1.0907,1.0869,1.0861,1.0815,1.0811,1.0751,1.0755,1.0759,1.0759,1.0722,1.0724,1.0608,1.0591,1.0694,1.0693,1.0692,0,1.1083,1.1052,1.1031,1.1012,1.1,1.0968,1.0948,1.0948,1.0926,1.0897,1.0871,1.0835,1.0805,1.0743,1.0728,1.0693,1.0694,1.0656,1.0689,1.0689,1.0691,1.0691,1.0687,1.0649,1.0648,1.0647,1.0646,0,1.0995,1.0996,1.0968,1.0939,1.0916,1.0893,1.0871,1.0853,1.0849,1.0824,1.0787,1.0764,1.0719,1.0681,1.0645,1.063,1.0636,1.0637,1.0626,1.0623,1.0626,1.0621,1.0739,1.0639,1.0639,1.064,1.064,1.0641,1.0932,1.0905,1.0886,1.0854,1.0838,1.0817,1.079,1.078,1.075,1.0714,1.0715,1.0674,1.0649,1.0603,1.0585,1.0551,1.0562,1.0547,1.0543,1.0538,1.0534,1.0634,1.0544,1.0545,1.0545,1.0545,1.0545,0,1.0843,1.0831,1.0803,1.0773,1.0747,1.0759,1.0735,1.0712,1.0676,1.0654,1.0626,1.0582,1.0545,1.0528,1.0492,1.0467,1.0469,1.0457,1.0457,1.0453,1.0527,1.0539,1.0456,1.0456,1.0456,1.0456,1.0456,1.0456,1.0793,1.0748,1.0745,1.0691,1.0679,1.0641,1.0626,1.0605,1.0588,1.0539,1.051,1.0501,1.0479,1.0441,1.0408,1.0403,1.0388,1.0374,1.0371,1.0439,1.0448,1.0457,1.0468,1.0372,1.0372,1.03,1.0299,1.0299]}]]